WA6MEM Weather Reports


Display with metric or nautical units.
time (UTC)temp
F
wind
direction
speed
MPH
gust
MPH
rain 1hr
in
rain 24hr
in
rain mn
in
humidity
%
barometer
mb
20220518232023 62 223 3.0 0.0 0.00 0.00 0.00 80 1012.8
20220518231524 63 169 2.0 0.0 0.00 0.00 0.00 81 1013.0
20220518231022 63 229 2.0 0.0 0.00 0.00 0.00 81 1013.0
20220518230522 62 154 2.0 0.0 0.00 0.00 0.00 81 1013.0
20220518230032 62 228 2.0 0.0 0.00 0.00 0.00 81 1013.1
20220518225525 62 201 2.0 0.0 0.00 0.00 0.00 82 1013.1
20220518225021 62 209 3.0 0.0 0.00 0.00 0.00 82 1013.1
20220518224531 62 217 3.0 0.0 0.00 0.00 0.00 81 1013.3
20220518224022 62 123 3.0 0.0 0.00 0.00 0.00 81 1013.3
20220518223520 62 228 3.0 0.0 0.00 0.00 0.00 82 1013.3
20220518223043 63 197 3.0 0.0 0.00 0.00 0.00 81 1013.3
20220518222525 62 180 3.0 0.0 0.00 0.00 0.00 82 1013.3
20220518222020 62 174 3.0 0.0 0.00 0.00 0.00 82 1013.3
20220518221520 62 182 3.0 0.0 0.00 0.00 0.00 81 1013.5
20220518221019 62 183 3.0 0.0 0.00 0.00 0.00 82 1013.5
20220518220519 63 231 3.0 0.0 0.00 0.00 0.00 80 1013.5
20220518220018 63 230 3.0 0.0 0.00 0.00 0.00 81 1013.8
20220518215518 63 235 3.0 0.0 0.00 0.00 0.00 81 1013.8
20220518215020 62 217 3.0 0.0 0.00 0.00 0.00 81 1013.8
20220518214518 62 188 4.0 0.0 0.00 0.00 0.00 82 1013.8
20220518214018 62 198 3.0 0.0 0.00 0.00 0.00 81 1013.8
20220518213637 62 238 3.0 0.0 0.00 0.00 0.00 81 1013.8
20220518213020 62 240 2.0 0.0 0.00 0.00 0.00 82 1014.0
20220518212519 62 236 2.0 0.0 0.00 0.00 0.00 83 1014.0
20220518212022 62 213 3.0 0.0 0.00 0.00 0.00 83 1014.0
20220518211515 62 196 3.0 0.0 0.00 0.00 0.00 83 1014.1
20220518211013 62 179 3.0 0.0 0.00 0.00 0.00 84 1014.1
20220518210512 61 212 3.0 0.0 0.00 0.00 0.00 85 1014.1
20220518210012 61 194 3.0 0.0 0.00 0.00 0.00 85 1014.4
20220518205514 60 160 3.0 0.0 0.00 0.00 0.00 86 1014.4
20220518205015 60 217 3.0 0.0 0.00 0.00 0.00 85 1014.4
20220518204512 60 189 3.0 0.0 0.00 0.00 0.00 85 1014.4
20220518204014 61 167 4.0 0.0 0.00 0.00 0.00 84 1014.4
20220518203513 61 182 3.0 0.0 0.00 0.00 0.00 85 1014.4
20220518203011 61 211 3.0 0.0 0.00 0.00 0.00 84 1014.6
20220518202511 61 227 3.0 0.0 0.00 0.00 0.00 85 1014.6
20220518202011 61 236 3.0 0.0 0.00 0.00 0.00 84 1014.6
20220518201517 61 202 3.0 0.0 0.00 0.00 0.00 85 1014.5
20220518201020 61 221 3.0 0.0 0.00 0.00 0.00 84 1014.5
20220518200515 61 184 3.0 0.0 0.00 0.00 0.00 84 1014.5
20220518200010 61 206 3.0 0.0 0.00 0.00 0.00 85 1014.8
20220518195509 61 236 3.0 0.0 0.00 0.00 0.00 87 1014.8
20220518195010 60 238 3.0 0.0 0.00 0.00 0.00 86 1014.8
20220518194507 60 182 3.0 0.0 0.00 0.00 0.00 87 1015.0
20220518194006 60 213 3.0 0.0 0.00 0.00 0.00 88 1015.0
20220518193506 60 228 3.0 0.0 0.00 0.00 0.00 88 1015.0
20220518193008 59 228 3.0 0.0 0.00 0.00 0.00 89 1015.1
20220518192503 59 276 3.0 0.0 0.00 0.00 0.00 89 1015.1
20220518192004 59 178 3.0 0.0 0.00 0.00 0.00 90 1015.1
20220518191503 58 221 3.0 0.0 0.00 0.00 0.00 90 1015.1
20220518191003 58 218 3.0 0.0 0.00 0.00 0.00 89 1015.1
20220518190600 58 213 2.0 0.0 0.00 0.00 0.00 90 1015.1
20220518190059 58 194 2.0 0.0 0.00 0.00 0.00 91 1015.1
20220518185602 58 155 2.0 0.0 0.00 0.00 0.00 92 1015.3
20220518185057 58 183 2.0 0.0 0.00 0.00 0.00 92 1015.3
20220518184602 57 202 1.0 0.0 0.00 0.00 0.00 93 1015.3
20220518184059 57 232 2.0 0.0 0.00 0.00 0.00 93 1015.5
20220518183554 57 175 2.0 0.0 0.00 0.00 0.00 92 1015.5
20220518183055 56 185 2.0 0.0 0.00 0.00 0.00 92 1015.5
20220518182555 56 171 2.0 0.0 0.00 0.00 0.00 93 1015.4
20220518182100 56 219 2.0 0.0 0.00 0.00 0.00 93 1015.4
20220518181558 56 193 2.0 0.0 0.00 0.00 0.00 94 1015.4
20220518181052 56 208 2.0 0.0 0.00 0.00 0.00 94 1015.4
20220518180551 56 213 2.0 0.0 0.00 0.00 0.00 94 1015.4
20220518180051 56 196 2.0 0.0 0.00 0.00 0.00 94 1015.4
20220518175550 56 223 2.0 0.0 0.00 0.00 0.00 94 1015.3
20220518175053 56 188 2.0 0.0 0.00 0.00 0.00 94 1015.3
20220518174559 56 233 1.0 0.0 0.00 0.00 0.00 95 1015.3
20220518174050 56 225 2.0 0.0 0.00 0.00 0.00 95 1015.3
20220518173550 55 183 2.0 0.0 0.00 0.00 0.00 95 1015.3
20220518173053 55 150 2.0 0.0 0.00 0.00 0.00 95 1015.3
20220518172550 55 148 1.0 0.0 0.00 0.00 0.00 95 1015.3
20220518172048 55 134 1.0 0.0 0.00 0.00 0.00 95 1015.3
20220518171603 55 183 1.0 0.0 0.00 0.00 0.00 96 1015.3
20220518171047 55 159 2.0 0.0 0.00 0.00 0.00 95 1015.2
20220518170546 55 103 3.0 0.0 0.00 0.00 0.00 95 1015.2
20220518170052 54 200 3.0 0.0 0.00 0.00 0.00 95 1015.2
20220518165546 54 128 3.0 0.0 0.00 0.00 0.00 96 1015.2
20220518165046 54 155 2.0 0.0 0.00 0.00 0.00 96 1015.2
20220518164552 54 164 2.0 0.0 0.00 0.00 0.00 96 1015.2
20220518164045 54 173 2.0 0.0 0.00 0.00 0.00 96 1015.3
20220518163544 54 85 2.0 0.0 0.00 0.00 0.00 96 1015.3
20220518163043 54 87 2.0 0.0 0.00 0.00 0.00 96 1015.3
20220518162544 54 110 2.0 0.0 0.00 0.00 0.00 96 1015.3
20220518162044 54 67 2.0 0.0 0.00 0.00 0.00 96 1015.3
20220518161605 54 140 1.0 0.0 0.00 0.00 0.00 96 1015.3
20220518161043 54 170 1.0 0.0 0.00 0.00 0.00 96 1015.4
20220518160542 54 147 2.0 0.0 0.00 0.00 0.00 96 1015.4
20220518160042 54 166 2.0 0.0 0.00 0.00 0.00 96 1015.4
20220518155541 54 173 2.0 0.0 0.00 0.00 0.00 96 1015.5
20220518155043 53 116 3.0 0.0 0.00 0.00 0.00 96 1015.5
20220518154542 53 126 2.0 0.0 0.00 0.00 0.00 96 1015.5
20220518154043 54 88 2.0 0.0 0.00 0.00 0.00 96 1015.3
20220518153543 54 101 2.0 0.0 0.00 0.00 0.00 96 1015.3
20220518153041 54 107 1.0 0.0 0.00 0.00 0.00 96 1015.3
20220518152540 54 211 2.0 0.0 0.00 0.00 0.00 96 1015.2
20220518152043 53 116 2.0 0.0 0.00 0.00 0.00 96 1015.2
20220518151554 53 82 2.0 0.0 0.00 0.00 0.00 96 1015.2
20220518151042 53 160 2.0 0.0 0.00 0.00 0.00 96 1015.2
20220518150543 53 161 1.0 0.0 0.00 0.00 0.00 96 1015.2
20220518150039 53 107 2.0 0.0 0.00 0.00 0.00 96 1015.2
20220518145539 53 109 2.0 0.0 0.00 0.00 0.00 96 1015.2
20220518145039 53 145 2.0 0.0 0.00 0.00 0.00 96 1015.2
20220518144539 53 209 2.0 0.0 0.00 0.00 0.00 96 1015.2
20220518144041 53 155 2.0 0.0 0.00 0.00 0.00 96 1015.1
20220518143539 53 136 2.0 0.0 0.00 0.00 0.00 96 1015.1
20220518143038 53 111 3.0 0.0 0.00 0.00 0.00 96 1015.1
20220518142538 53 90 2.0 0.0 0.00 0.00 0.00 96 1015.1
20220518142038 53 76 2.0 0.0 0.00 0.00 0.00 96 1015.1
20220518141537 53 159 1.0 0.0 0.00 0.00 0.00 96 1015.1
20220518141040 53 153 1.0 0.0 0.00 0.00 0.00 96 1014.7
20220518140538 53 157 2.0 0.0 0.00 0.00 0.00 96 1014.7
20220518140107 53 82 2.0 0.0 0.00 0.00 0.00 96 1014.7
20220518135537 53 127 3.0 0.0 0.00 0.00 0.00 96 1014.7
20220518135039 53 142 2.0 0.0 0.00 0.00 0.00 96 1014.7
20220518134537 53 140 2.0 0.0 0.00 0.00 0.00 96 1014.7
20220518134036 53 132 1.0 0.0 0.00 0.00 0.00 96 1014.6
20220518133538 53 169 2.0 0.0 0.00 0.00 0.00 96 1014.6
20220518133043 53 106 3.0 0.0 0.00 0.00 0.00 96 1014.6
20220518132535 53 108 2.0 0.0 0.00 0.00 0.00 96 1014.5
20220518132039 53 111 2.0 0.0 0.00 0.00 0.00 96 1014.5
20220518131534 53 96 1.0 0.0 0.00 0.00 0.00 96 1014.5
20220518131035 53 158 1.0 0.0 0.00 0.00 0.00 96 1014.2
20220518130534 53 130 2.0 0.0 0.00 0.00 0.00 96 1014.2
20220518130036 53 138 2.0 0.0 0.00 0.00 0.00 96 1014.2
20220518125534 53 155 2.0 0.0 0.00 0.00 0.00 96 1014.0
20220518125034 53 111 2.0 0.0 0.00 0.00 0.00 96 1014.0
20220518124536 53 107 2.0 0.0 0.00 0.00 0.00 96 1014.0
20220518124034 53 106 2.0 0.0 0.00 0.00 0.00 96 1014.0
20220518123534 53 160 2.0 0.0 0.00 0.00 0.00 96 1014.0
20220518123037 53 144 2.0 0.0 0.00 0.00 0.00 96 1014.0
20220518122532 53 161 1.0 0.0 0.00 0.00 0.00 96 1014.1
20220518122033 53 143 1.0 0.0 0.00 0.00 0.00 96 1014.1
20220518121536 53 160 1.0 0.0 0.00 0.00 0.00 96 1014.1
20220518121043 53 94 2.0 0.0 0.00 0.00 0.00 95 1013.9
20220518120532 53 137 2.0 0.0 0.00 0.00 0.00 95 1013.9
20220518120031 53 173 2.0 0.0 0.00 0.00 0.00 96 1013.9
20220518115534 53 164 2.0 0.0 0.00 0.00 0.00 96 1013.8
20220518115031 53 126 2.0 0.0 0.00 0.00 0.00 96 1013.8
20220518114531 53 76 2.0 0.0 0.00 0.00 0.00 96 1013.8
20220518114031 53 90 2.0 0.0 0.00 0.00 0.00 96 1013.8
20220518113531 53 139 2.0 0.0 0.00 0.00 0.00 95 1013.8
20220518113034 53 149 2.0 0.0 0.00 0.00 0.00 95 1013.8
20220518112531 53 97 2.0 0.0 0.00 0.00 0.00 95 1013.6
20220518112032 53 114 3.0 0.0 0.00 0.00 0.00 95 1013.6
20220518111532 53 84 3.0 0.0 0.00 0.00 0.00 95 1013.6
20220518111031 54 107 3.0 0.0 0.00 0.00 0.00 96 1013.5
20220518110530 54 145 3.0 0.0 0.00 0.00 0.00 96 1013.5
20220518110031 53 111 3.0 0.0 0.00 0.00 0.00 95 1013.5
20220518105530 53 90 2.0 0.0 0.00 0.00 0.00 95 1013.4
20220518105031 53 90 3.0 0.0 0.00 0.00 0.00 95 1013.4
20220518104528 53 123 3.0 0.0 0.00 0.00 0.00 95 1013.4
20220518104030 53 107 2.0 0.0 0.00 0.00 0.00 95 1013.3
20220518103527 53 100 3.0 0.0 0.00 0.00 0.00 95 1013.3
20220518103027 53 168 3.0 0.0 0.00 0.00 0.00 95 1013.4
20220518102527 53 126 2.0 0.0 0.00 0.00 0.00 95 1013.4
20220518102032 53 119 2.0 0.0 0.00 0.00 0.00 95 1013.4
20220518101533 53 78 2.0 0.0 0.00 0.00 0.00 95 1013.4
20220518101025 53 89 2.0 0.0 0.00 0.00 0.00 95 1013.4
20220518100525 53 85 2.0 0.0 0.00 0.00 0.00 95 1013.4
20220518100046 53 74 3.0 0.0 0.00 0.00 0.00 95 1013.7
20220518095524 53 82 3.0 0.0 0.00 0.00 0.00 95 1013.7
20220518095026 53 72 2.0 0.0 0.00 0.00 0.00 95 1013.7
20220518094525 53 78 3.0 0.0 0.00 0.00 0.00 95 1013.5
20220518094028 53 24 3.0 0.0 0.00 0.00 0.00 95 1013.5
20220518093524 53 76 3.0 0.0 0.00 0.00 0.00 95 1013.5
20220518093023 52 46 3.0 0.0 0.00 0.00 0.00 95 1013.8
20220518092525 52 96 2.0 0.0 0.00 0.00 0.00 95 1013.8
20220518092025 52 77 2.0 0.0 0.00 0.00 0.00 95 1013.8
20220518091523 52 126 2.0 0.0 0.00 0.00 0.00 95 1013.9
20220518091023 52 77 2.0 0.0 0.00 0.00 0.00 95 1013.9
20220518090523 52 85 1.0 0.0 0.00 0.00 0.00 95 1013.9
20220518090021 52 99 1.0 0.0 0.00 0.00 0.00 95 1014.0
20220518085522 52 124 0.0 0.0 0.00 0.00 0.00 95 1014.0
20220518085021 52 161 0.0 0.0 0.00 0.00 0.00 95 1014.0
20220518084521 52 161 0.0 0.0 0.00 0.00 0.00 95 1014.1
20220518084021 52 161 0.0 0.0 0.00 0.00 0.00 95 1014.1
20220518083521 52 162 1.0 0.0 0.00 0.00 0.00 94 1014.1
20220518083024 52 162 1.0 0.0 0.00 0.00 0.00 94 1014.0
20220518082550 52 152 2.0 0.0 0.00 0.00 0.00 94 1014.0
20220518082020 52 152 1.0 0.0 0.00 0.00 0.00 94 1014.0
20220518081522 52 171 1.0 0.0 0.00 0.00 0.00 94 1014.1
20220518081018 52 168 1.0 0.0 0.00 0.00 0.00 94 1014.1
20220518080519 52 144 1.0 0.0 0.00 0.00 0.00 94 1014.1
20220518080021 52 221 1.0 0.0 0.00 0.00 0.00 94 1014.1
20220518075518 52 219 1.0 0.0 0.00 0.00 0.00 94 1014.1
20220518075017 53 190 1.0 0.0 0.00 0.00 0.00 94 1014.1
20220518074523 53 218 1.0 0.0 0.00 0.00 0.00 94 1014.2
20220518074017 53 220 1.0 0.0 0.00 0.00 0.00 94 1014.2
20220518073517 52 159 1.0 0.0 0.00 0.00 0.00 94 1014.2
20220518073018 52 179 1.0 0.0 0.00 0.00 0.00 94 1014.1
20220518072523 53 206 1.0 0.0 0.00 0.00 0.00 94 1014.1
20220518072018 53 157 1.0 0.0 0.00 0.00 0.00 94 1014.1
20220518071518 53 190 1.0 0.0 0.00 0.00 0.00 94 1014.1
20220518071016 53 189 1.0 0.0 0.00 0.00 0.00 94 1014.1
20220518070515 53 150 1.0 0.0 0.00 0.00 0.00 94 1014.1
20220518070020 52 149 1.0 0.0 0.00 0.00 0.00 94 1014.0
20220518065515 52 123 1.0 0.0 0.00 0.00 0.00 93 1014.0
20220518065015 52 151 1.0 0.0 0.00 0.00 0.00 93 1014.0
20220518064525 52 152 1.0 0.0 0.00 0.00 0.00 93 1014.0
20220518064014 52 135 1.0 0.0 0.00 0.00 0.00 93 1014.0
20220518063514 52 92 1.0 0.0 0.00 0.00 0.00 93 1014.0
20220518063013 52 168 1.0 0.0 0.00 0.00 0.00 93 1014.0
20220518062513 52 172 1.0 0.0 0.00 0.00 0.00 93 1014.0
20220518062012 53 154 0.0 0.0 0.00 0.00 0.00 93 1014.0
20220518061526 53 153 0.0 0.0 0.00 0.00 0.00 93 1014.2
20220518061011 53 153 0.0 0.0 0.00 0.00 0.00 93 1014.2
20220518060510 53 153 0.0 0.0 0.00 0.00 0.00 93 1014.2
20220518060010 53 153 0.0 0.0 0.00 0.00 0.00 93 1014.2
20220518055511 53 153 0.0 0.0 0.00 0.00 0.00 93 1014.2
20220518055011 53 153 0.0 0.0 0.00 0.00 0.00 93 1014.2
20220518054510 53 153 0.0 0.0 0.00 0.00 0.00 93 1014.2
20220518054009 54 153 0.0 0.0 0.00 0.00 0.00 93 1014.2
20220518053509 54 132 0.0 0.0 0.00 0.00 0.00 93 1014.2
20220518053010 54 132 0.0 0.0 0.00 0.00 0.00 92 1014.0
20220518052510 54 132 0.0 0.0 0.00 0.00 0.00 92 1014.0
20220518052009 54 107 0.0 0.0 0.00 0.00 0.00 92 1014.0
20220518051524 54 107 0.0 0.0 0.00 0.00 0.00 92 1013.9
20220518051011 54 107 1.0 0.0 0.00 0.00 0.00 92 1013.9
20220518050508 54 107 1.0 0.0 0.00 0.00 0.00 93 1013.9
20220518050009 54 89 1.0 0.0 0.00 0.00 0.00 93 1013.8
20220518045509 54 82 1.0 0.0 0.00 0.00 0.00 92 1013.8
20220518045009 54 90 0.0 0.0 0.00 0.00 0.00 92 1013.8
20220518044508 54 90 0.0 0.0 0.00 0.00 0.00 92 1013.7
20220518044007 54 90 0.0 0.0 0.00 0.00 0.00 92 1013.7
20220518043509 54 90 0.0 0.0 0.00 0.00 0.00 92 1013.7
20220518043008 54 90 0.0 0.0 0.00 0.00 0.00 92 1013.7
20220518042507 54 90 0.0 0.0 0.00 0.00 0.00 91 1013.7
20220518042010 54 90 0.0 0.0 0.00 0.00 0.00 92 1013.7
20220518041507 54 90 0.0 0.0 0.00 0.00 0.00 91 1013.6
20220518041007 55 90 0.0 0.0 0.00 0.00 0.00 91 1013.6
20220518040507 55 90 1.0 0.0 0.00 0.00 0.00 91 1013.6
20220518040011 55 90 1.0 0.0 0.00 0.00 0.00 92 1013.6
20220518035506 55 94 1.0 0.0 0.00 0.00 0.00 91 1013.6
20220518035007 55 76 1.0 0.0 0.00 0.00 0.00 91 1013.6
20220518034506 55 76 0.0 0.0 0.00 0.00 0.00 91 1013.4
20220518034006 55 76 0.0 0.0 0.00 0.00 0.00 91 1013.4
20220518033505 55 76 1.0 0.0 0.00 0.00 0.00 92 1013.4
20220518033006 55 76 1.0 0.0 0.00 0.00 0.00 92 1013.2
20220518032505 55 69 1.0 0.0 0.00 0.00 0.00 92 1013.2
20220518032005 55 67 2.0 0.0 0.00 0.00 0.00 92 1013.2
20220518031506 55 84 2.0 0.0 0.00 0.00 0.00 92 1013.1
20220518031006 55 75 2.0 0.0 0.00 0.00 0.00 92 1013.1
20220518030505 55 109 1.0 0.0 0.00 0.00 0.00 92 1013.1
20220518030011 54 132 0.0 0.0 0.00 0.00 0.00 92 1013.1
20220518025504 54 136 0.0 0.0 0.00 0.00 0.00 91 1013.1
20220518025004 54 136 0.0 0.0 0.00 0.00 0.00 91 1013.1
20220518024505 55 136 1.0 0.0 0.00 0.00 0.00 91 1013.0
20220518024007 55 160 1.0 0.0 0.00 0.00 0.00 90 1013.0
20220518023505 55 173 2.0 0.0 0.00 0.00 0.00 90 1013.0
20220518023009 55 166 1.0 0.0 0.00 0.00 0.00 90 1013.0
20220518022504 55 206 1.0 0.0 0.00 0.00 0.00 89 1013.0
20220518022004 56 197 1.0 0.0 0.00 0.00 0.00 89 1013.0
20220518021509 56 237 1.0 0.0 0.00 0.00 0.00 90 1013.0
20220518021005 56 225 1.0 0.0 0.00 0.00 0.00 89 1013.0
20220518020502 56 267 2.0 0.0 0.00 0.00 0.00 89 1013.0
20220518020007 56 306 2.0 0.0 0.00 0.00 0.00 89 1013.0
20220518015504 56 255 2.0 0.0 0.00 0.00 0.00 89 1013.0
20220518015003 56 234 2.0 0.0 0.00 0.00 0.00 90 1013.0
20220518014503 56 272 3.0 0.0 0.00 0.00 0.00 89 1012.9
20220518014007 56 294 3.0 0.0 0.00 0.00 0.00 88 1012.9
20220518013503 57 288 2.0 0.0 0.00 0.00 0.00 88 1012.9
20220518013002 57 211 2.0 0.0 0.00 0.00 0.00 89 1012.9
20220518012504 57 210 2.0 0.0 0.00 0.00 0.00 89 1012.9
20220518012002 57 202 2.0 0.0 0.00 0.00 0.00 89 1012.9
20220518011506 57 205 2.0 0.0 0.00 0.00 0.00 88 1013.0
20220518011002 57 186 3.0 0.0 0.00 0.00 0.00 88 1013.0
20220518010503 57 185 3.0 0.0 0.00 0.00 0.00 87 1013.0
20220518010001 58 229 2.0 0.0 0.00 0.00 0.00 87 1012.9
20220518005501 58 221 3.0 0.0 0.00 0.00 0.00 87 1012.9
20220518005000 58 232 3.0 0.0 0.00 0.00 0.00 85 1012.9
20220518004503 59 217 4.0 0.0 0.00 0.00 0.00 85 1012.8
20220518004101 59 226 4.0 0.0 0.00 0.00 0.00 84 1012.8
20220518003600 60 273 3.0 0.0 0.00 0.00 0.00 83 1012.8
20220518003100 60 242 2.0 0.0 0.00 0.00 0.00 82 1012.8
20220518003001 60 184 2.0 0.0 0.00 0.00 0.00 82 1012.8
20220518002600 60 233 3.0 0.0 0.00 0.00 0.00 82 1012.8
20220518002100 60 238 3.0 0.0 0.00 0.00 0.00 82 1012.8
20220518001600 60 272 3.0 0.0 0.00 0.00 0.00 82 1012.8
20220518001101 60 196 3.0 0.0 0.00 0.00 0.00 82 1013.0
20220518000600 60 226 2.0 0.0 0.00 0.00 0.00 82 1013.0
20220518000108 60 215 3.0 0.0 0.00 0.00 0.00 84 1013.0
20220517235600 59 211 3.0 0.0 0.00 0.00 0.00 83 1013.1
20220517235100 60 217 2.0 0.0 0.00 0.00 0.00 84 1013.1
20220517234602 59 227 3.0 0.0 0.00 0.00 0.00 84 1013.1
20220517234058 60 209 3.0 0.0 0.00 0.00 0.00 84 1013.0
20220517233558 60 203 3.0 0.0 0.00 0.00 0.00 83 1013.0
20220517233058 61 178 3.0 0.0 0.00 0.00 0.00 82 1013.0
20220517232558 61 252 3.0 0.0 0.00 0.00 0.00 82 1013.3